Regional Weather Roundup
Issued by NWS

Home | Current Version | Previous Version | Text Only | Print | Product List | Glossary Off
Versions: 1 2 3 4 5 6 7 8 9 10 11 12 13 14 15 16 17 18 19 20 21 22 23 24 25 26 27 28 29 30 31 32 33 34 35 36 37 38 39 40 41 42 43 44 45 46 47 48 49 50

000
ASUS45 KBOU 040607
RWRCO

WEATHER ROUNDUP FOR COLORADO
NATIONAL WEATHER SERVICE DENVER/BOULDER CO
1200 AM MDT MON MAY 04 2015

NOTE: "FAIR" INDICATES FEW OR NO CLOUDS BELOW 12000 FEET WITH NO
SIGNIFICANT WEATHER AND/OR OBSTRUCTIONS TO VISIBILITY.

COZ001>005-013-030-031-040700-
...NORTHWEST COLORADO...

CITY           SKY/WX    TMP DP  RH WIND       PRES   REMARKS
CRAIG          CLOUDY    53  40  61 E7        30.08F
HAYDEN         CLOUDY    48  39  71 CALM      30.11R
MEEKER         CLOUDY    50  42  74 SE3       30.10S
MOUNT WERNER   NOT AVBL
STEAMBOAT SPGS CLOUDY    46  37  73 CALM      30.11R
WALDEN         CLOUDY    39  34  81 SE3       30.15F
$$

COZ006>008-011-040700-
...WEST CENTRAL VALLEYS...

CITY           SKY/WX    TMP DP  RH WIND       PRES   REMARKS
GRAND JUNCTION PTCLDY    56  42  59 SE12      30.00R
MONTROSE       MOCLDY    51  39  63 S6        30.08F
EAGLE          CLOUDY    45  43  93 E8        30.14S
RIFLE          LGT RAIN  51  47  86 CALM      30.11R
DELTA          MOCLDY    54  47  80 NW5       30.05R
NUCLA          MOCLDY    54  36  50 E9        30.07S
$$

COZ017>023-064>068-040700-
...SOUTHWEST COLORADO...

CITY           SKY/WX    TMP DP  RH WIND       PRES   REMARKS
DURANGO        PTCLDY    45  37  73 NE8       30.08F
CORTEZ         CLEAR     49  37  63 NW5       30.03R
PAGOSA SPRINGS PTCLDY    42  39  92 CALM      30.15S
TELLURIDE      MOCLDY    41  37  87 SE7       30.20F
WOLF CREEK PAS NOT AVBL
$$

COZ009-010-012-014-032>034-037-058>063-040700-
...CENTRAL COLORADO...

CITY           SKY/WX    TMP DP  RH WIND       PRES   REMARKS
ASPEN          CLOUDY    42  37  82 S5        30.16R
BUENA VISTA    NOT AVBL
COPPER MTN     CLOUDY    37  30  75 S8        30.31S
BERTHOUD PASS  HAZE      28  19  69 E13       30.34F VSB<1/4 WCI  18
COTTONWOOD PAS CLOUDY    43  32  65 NW7       30.24S
GUNNISON       CLOUDY    43  37  81 SW3       30.21R
KREMMLING      CLOUDY    46  36  66 SW7       30.14S
LEADVILLE      CLOUDY    34  30  85 CALM      30.22R
MONARCH PASS   FOG       32  30  93 MISG      30.42F VSB<1/4
SALIDA         CLOUDY    51  38  61 SW9       30.23R
SUNLIGHT       FOG       36  36 100 CALM      30.30R VSB 1/2
WILKERSON PASS FOG       34  32  93 E5        30.33R VSB 1   WCI  30
$$

COZ069>075-040700-
...SAN LUIS VALLEY/SANGRE DE CRISTO MOUNTAINS...

CITY           SKY/WX    TMP DP  RH WIND       PRES   REMARKS
ALAMOSA        CLOUDY    45  39  79 SE7       30.14R
LA VETA PASS   RAIN      36  36 100 MISG      30.27S VSB 1/4
SAGUACHE       CLOUDY    46  37  71 NW6       30.17S
$$

COZ035-036-038>040-040700-
...NORTHERN COLORADO FRONT RANGE...

CITY           SKY/WX    TMP DP  RH WIND       PRES   REMARKS
DENVER INTL AP CLOUDY    52  44  74 SW9       30.08S
DMNS CITY PARK   N/A     53  43  68 SW7       30.08F
AURORA         MOCLDY    51  44  77 SW7       30.10F
FRONT RANGE AP NOT AVBL
ERIE MUNI ARPT PTCLDY    47  43  86 CALM      30.08F
BOULDER MUN AP PTCLDY    52  46  82 S5        30.08S
CENTENNIAL     MOCLDY    50  44  80 SW8       30.10F
BROOMFIELD     PTCLDY    46  43  87 W8        30.10F
FORT COLLINS   PTCLDY    50  43  76 CALM      30.08S
LONGMONT       PTCLDY    50  46  84 CALM      30.09F
$$

COZ041-046-047-076>085-087-088-040700-
...PIKES PEAK/PALMER DIVIDE AND SOUTHERN FOOTHILLS...

CITY           SKY/WX    TMP DP  RH WIND       PRES   REMARKS
COLO. SPRINGS  CLOUDY    53  42  66 W10       30.13R
A. F. ACADEMY  CLOUDY    50  40  68 NW2       30.13S
ELLICOTT       CLOUDY   N/A N/A N/A E16       30.08R
FALCON         CLOUDY    49  39  67 NE9       30.14S
FORT CARSON    CLOUDY    55  41  61 NW10      30.10R
LIMON          MOCLDY    49  44  83 CALM      30.08S
MONUMENT HILL  MOCLDY    43  41  93 W5        30.14F
TRINIDAD       CLOUDY    54  41  61 N7        30.07R
$$

COZ042>045-048>051-090-091-040700-
...NORTHEAST COLORADO...

CITY           SKY/WX    TMP DP  RH WIND       PRES   REMARKS
GREELEY ARPT   PTCLDY    48  39  71 CALM      30.08R
AKRON          CLOUDY    56  42  59 SE13      30.07R
BURLINGTON     CLOUDY    58  50  75 NW13      30.02F
WRAY           CLOUDY    60  42  50 E9        30.06R
STERLING       CLOUDY    55  43  62 NE8       30.04R
HOLYOKE        NOT AVBL
FORT MORGAN    DRIZZLE   55  -9   7 N5        30.08R
$$

COZ086-089-092>099-040700-
...SOUTHEAST COLORADO...

CITY           SKY/WX    TMP DP  RH WIND       PRES   REMARKS
PUEBLO         CLOUDY    58  44  60 N6        30.06R
LA JUNTA       CLOUDY    60  48  64 E9        30.01R
LAMAR          CLOUDY    63  48  58 E9        29.96R
SPRINGFIELD      N/A     59  50  72 N9        29.97R
$$


USA.gov is the U.S. government's official web portal to all federal, state and local government web resources and services.